FENGYUN 1C DEB, 31218

Orbit data source: Space-Track

FENGYUN 1C DEB, 31218 is space debris in SSO originally from a launch on Mon, 10 May 1999 UTC launched from the Taiyaun Space Center, China (TSC). Fengyun 1C debris stems from the Chinese weather satellite Fengyun-1C, which was intentionally destroyed by a Chinese anti-satellite missile in 2007. This event dramatically increased the amount of space debris, with thousands of trackable fragments posing hazards to satellites and human spaceflight. The Fengyun 1C debris cloud has become a focal point in discussions about space sustainability and the need for international regulations to prevent the creation of new debris.

Loading next visibility...
Identifier
31218, 1999-025BKY
Orbit
SSO
Country
Flag of CNCN / PRC
Related business
Manufacturer
Unknown
Mission
Spacecraft
Bus & Motor
Unknown
Mass
Unknown
Launch date (UTC)
1999-05-10 (27 years ago)
Launch vehicle
Unknown
Launch site
Taiyaun Space Center, China (TSC)
Object type
Payload
Rocket body
Debris
Shape & HBR
Unknown shape, 0.1 m
Radar Cross Section
Medium (>0.1 m² and <1 m²)

Expand to show TLE details & history
Last TLE update: 2 days ago

TLE from 2 days ago
0 FENGYUN 1C DEB
1 31218U 99025BKY 26255.22362180  .00029971  00000-0  29691-2 0  9991
2 31218  98.8405  38.9507 0009677 246.1293 113.8909 14.91730717 10494
Epoch: 2026-09-12T05:22Z
TLE epoch observation values (Epoch: 2026-09-12T05:22:00.923Z)
Latitude
Longitude
-32.78885°
Altitude
598.284 km
Speed
7.559 km/s
True Right ascension
02h 35m 48s
True Declination
0° 00' 00"
Sunlit
Object was in full shadow at epoch
Visualization orbit readout
Latitude
Unknown
Longitude
Unknown
Altitude
Unknown
Speed
Unknown
Apparent Right ascension
Unknown
Apparent Declination
Unknown
Sunlit
N/A
Visualization observer readout
Local Sidereal Time
15:14:39
Azimuth
Unknown
Elevation
Unknown
Doppler factor
Unknown
Orbital elements
Apogee altitude
596.351 km
Perigee altitude
582.866 km
Semi-major axis
6,967.746 km
Eccentricity
0.00097
Inclination
98.8405°
RAAN
38.9507°
Arg. of periapsis
246.1293°
True anomaly
113.99224°
Mean anomaly
113.8909°
Eccentric anomaly
113.94157°
Mean motion
3.73168 °/min
Orbital period
96.47 mins
BSTAR
0.0029691
Loading maneuver chart data...
Computing Atmospheric mass density...

Documentation

Showing up to 5 results
|